Time,TemperatureF,DewpointF,PressureIn,WindDirection,WindDirectionDegrees,WindSpeedMPH,WindSpeedGustMPH,Humidity,HourlyPrecipIn,Conditions,Clouds,dailyrainin,SoftwareType,DateUTC
2013-04-18 00:00:00,38.9,30.3,30.34,NNE,28,1.0,1.0,71,0.00,,,0.00,Wunderground v.1.15,2013-04-18 04:00:00,
2013-04-18 00:01:00,39.1,30.1,30.34,NNE,28,0.0,1.0,70,0.00,,,0.00,Wunderground v.1.15,2013-04-18 04:01:00,
2013-04-18 00:02:00,39.1,30.1,30.34,NNE,28,0.0,1.0,70,0.00,,,0.00,Wunderground v.1.15,2013-04-18 04:02:00,
2013-04-18 00:03:00,39.2,29.9,30.34,NNE,28,1.0,1.0,69,0.00,,,0.00,Wunderground v.1.15,2013-04-18 04:03:00,
2013-04-18 00:05:00,39.2,29.9,30.34,NNE,28,2.0,2.0,69,0.00,,,0.00,Wunderground v.1.15,2013-04-18 04:05:00,
2013-04-18 00:08:00,39.2,30.2,30.34,NNE,28,2.0,2.0,70,0.00,,,0.00,Wunderground v.1.15,2013-04-18 04:08:00,
2013-04-18 00:14:00,38.9,30.3,30.35,NNE,28,0.0,2.0,71,0.00,,,0.00,Wunderground v.1.15,2013-04-18 04:14:00,
2013-04-18 00:20:00,39.5,30.2,30.35,NNE,28,2.0,2.0,69,0.00,,,0.00,Wunderground v.1.15,2013-04-18 04:20:00,
2013-04-18 00:25:00,39.6,29.9,30.35,NNE,28,0.0,3.0,68,0.00,,,0.00,Wunderground v.1.15,2013-04-18 04:25:00,
2013-04-18 00:30:00,39.1,29.8,30.34,NNE,28,0.0,1.0,69,0.00,,,0.00,Wunderground v.1.15,2013-04-18 04:30:00,
2013-04-18 00:35:00,38.6,29.3,30.34,NNE,28,0.0,1.0,69,0.00,,,0.00,Wunderground v.1.15,2013-04-18 04:35:00,
2013-04-18 00:42:00,38.3,29.4,30.33,NNE,28,2.0,3.0,70,0.00,,,0.00,Wunderground v.1.15,2013-04-18 04:42:00,
2013-04-18 00:48:00,37.8,29.6,30.33,NNE,28,0.0,3.0,72,0.00,,,0.00,Wunderground v.1.15,2013-04-18 04:48:00,
2013-04-18 00:54:00,37.8,29.6,30.33,NNE,28,0.0,1.0,72,0.00,,,0.00,Wunderground v.1.15,2013-04-18 04:54:00,
2013-04-18 01:00:00,36.9,29.4,30.34,NNE,28,0.0,0.0,74,0.00,,,0.00,Wunderground v.1.15,2013-04-18 05:00:00,
2013-04-18 01:06:00,36.6,29.4,30.34,NNE,28,0.0,0.0,75,0.00,,,0.00,Wunderground v.1.15,2013-04-18 05:06:00,
2013-04-18 01:11:00,36.5,29.3,30.34,NNE,28,0.0,0.0,75,0.00,,,0.00,Wunderground v.1.15,2013-04-18 05:11:00,
2013-04-18 01:16:00,36.0,29.2,30.33,NNE,28,0.0,0.0,76,0.00,,,0.00,Wunderground v.1.15,2013-04-18 05:16:00,
2013-04-18 01:22:00,35.9,29.4,30.33,NNE,28,0.0,0.0,77,0.00,,,0.00,Wunderground v.1.15,2013-04-18 05:22:00,
2013-04-18 01:28:00,35.8,29.3,30.33,NNE,28,0.0,0.0,77,0.00,,,0.00,Wunderground v.1.15,2013-04-18 05:28:00,
2013-04-18 01:34:00,35.8,29.3,30.33,NNE,28,0.0,0.0,77,0.00,,,0.00,Wunderground v.1.15,2013-04-18 05:34:00,
2013-04-18 01:39:00,35.6,29.1,30.33,NNE,28,0.0,0.0,77,0.00,,,0.00,Wunderground v.1.15,2013-04-18 05:39:00,
2013-04-18 01:45:00,35.5,29.3,30.33,NNE,28,0.0,0.0,78,0.00,,,0.00,Wunderground v.1.15,2013-04-18 05:45:00,
2013-04-18 01:52:00,35.3,29.1,30.33,NNE,28,0.0,0.0,78,0.00,,,0.00,Wunderground v.1.15,2013-04-18 05:52:00,
2013-04-18 01:58:00,35.2,29.0,30.33,NNE,28,0.0,0.0,78,0.00,,,0.00,Wunderground v.1.15,2013-04-18 05:58:00,
2013-04-18 02:03:00,35.0,29.1,30.33,NNE,28,0.0,0.0,79,0.00,,,0.00,Wunderground v.1.15,2013-04-18 06:03:00,
2013-04-18 02:08:00,35.0,29.1,30.33,NNE,28,0.0,0.0,79,0.00,,,0.00,Wunderground v.1.15,2013-04-18 06:08:00,
2013-04-18 02:13:00,34.9,29.0,30.32,NNE,28,0.0,0.0,79,0.00,,,0.00,Wunderground v.1.15,2013-04-18 06:13:00,
2013-04-18 02:18:00,34.7,29.2,30.32,NNE,28,0.0,0.0,80,0.00,,,0.00,Wunderground v.1.15,2013-04-18 06:18:00,
2013-04-18 02:23:00,34.7,29.2,30.32,NNE,28,0.0,0.0,80,0.00,,,0.00,Wunderground v.1.15,2013-04-18 06:23:00,
2013-04-18 02:28:00,34.7,29.2,30.31,NNE,28,0.0,0.0,80,0.00,,,0.00,Wunderground v.1.15,2013-04-18 06:28:00,
2013-04-18 02:33:00,35.2,29.6,30.31,NNE,28,0.0,0.0,80,0.00,,,0.00,Wunderground v.1.15,2013-04-18 06:33:00,
2013-04-18 02:38:00,35.0,29.5,30.31,NNE,28,1.0,1.0,80,0.00,,,0.00,Wunderground v.1.15,2013-04-18 06:38:00,
2013-04-18 02:43:00,34.7,29.2,30.32,NNE,28,0.0,0.0,80,0.00,,,0.00,Wunderground v.1.15,2013-04-18 06:43:00,
2013-04-18 02:48:00,34.4,28.9,30.32,NNE,28,0.0,0.0,80,0.00,,,0.00,Wunderground v.1.15,2013-04-18 06:48:00,
2013-04-18 02:54:00,34.3,29.1,30.32,NNE,28,0.0,0.0,81,0.00,,,0.00,Wunderground v.1.15,2013-04-18 06:54:00,
2013-04-18 02:58:00,34.4,29.2,30.33,NNE,28,0.0,1.0,81,0.00,,,0.00,Wunderground v.1.15,2013-04-18 06:58:00,
2013-04-18 03:04:00,34.4,29.5,30.33,NNE,28,0.0,2.0,82,0.00,,,0.00,Wunderground v.1.15,2013-04-18 07:04:00,
2013-04-18 03:09:00,34.6,30.0,30.33,NNE,28,0.0,2.0,83,0.00,,,0.00,Wunderground v.1.15,2013-04-18 07:09:00,
2013-04-18 03:14:00,34.6,30.0,30.33,NNE,28,0.0,1.0,83,0.00,,,0.00,Wunderground v.1.15,2013-04-18 07:14:00,
2013-04-18 03:19:00,34.9,30.3,30.33,NNE,28,0.0,1.0,83,0.00,,,0.00,Wunderground v.1.15,2013-04-18 07:19:00,
2013-04-18 03:24:00,35.2,30.6,30.33,NNE,28,0.0,2.0,83,0.00,,,0.00,Wunderground v.1.15,2013-04-18 07:24:00,
2013-04-18 03:29:00,35.5,30.5,30.33,NNE,28,0.0,2.0,82,0.00,,,0.00,Wunderground v.1.15,2013-04-18 07:29:00,
2013-04-18 03:34:00,35.6,30.3,30.33,NNE,28,0.0,0.0,81,0.00,,,0.00,Wunderground v.1.15,2013-04-18 07:34:00,
2013-04-18 03:39:00,35.8,30.2,30.33,NNE,28,0.0,0.0,80,0.00,,,0.00,Wunderground v.1.15,2013-04-18 07:39:00,
2013-04-18 03:44:00,35.8,30.2,30.34,NNE,28,0.0,0.0,80,0.00,,,0.00,Wunderground v.1.15,2013-04-18 07:44:00,
2013-04-18 03:49:00,35.8,30.2,30.34,NNE,28,0.0,0.0,80,0.00,,,0.00,Wunderground v.1.15,2013-04-18 07:49:00,
2013-04-18 03:54:00,35.8,30.5,30.34,NNE,28,0.0,0.0,81,0.00,,,0.00,Wunderground v.1.15,2013-04-18 07:54:00,
2013-04-18 03:59:00,35.6,30.3,30.33,NNE,28,0.0,0.0,81,0.00,,,0.00,Wunderground v.1.15,2013-04-18 07:59:00,
2013-04-18 04:04:00,35.6,30.6,30.33,NNE,28,0.0,1.0,82,0.00,,,0.00,Wunderground v.1.15,2013-04-18 08:04:00,
2013-04-18 04:09:00,35.6,30.6,30.33,NNE,28,0.0,1.0,82,0.00,,,0.00,Wunderground v.1.15,2013-04-18 08:09:00,
2013-04-18 04:14:00,35.6,30.6,30.33,NNE,28,0.0,0.0,82,0.00,,,0.00,Wunderground v.1.15,2013-04-18 08:14:00,
2013-04-18 04:19:00,35.6,30.6,30.33,NNE,28,0.0,0.0,82,0.00,,,0.00,Wunderground v.1.15,2013-04-18 08:19:00,
2013-04-18 04:24:00,35.6,30.3,30.33,NNE,28,0.0,1.0,81,0.00,,,0.00,Wunderground v.1.15,2013-04-18 08:24:00,
2013-04-18 04:29:00,35.6,30.3,30.32,NNE,28,0.0,1.0,81,0.00,,,0.00,Wunderground v.1.15,2013-04-18 08:29:00,
2013-04-18 04:34:00,35.6,30.3,30.32,NNE,28,0.0,0.0,81,0.00,,,0.00,Wunderground v.1.15,2013-04-18 08:34:00,
2013-04-18 04:40:00,35.3,30.4,30.32,NNE,28,0.0,0.0,82,0.00,,,0.00,Wunderground v.1.15,2013-04-18 08:40:00,
2013-04-18 04:45:00,35.3,30.4,30.32,NNE,28,0.0,0.0,82,0.00,,,0.00,Wunderground v.1.15,2013-04-18 08:45:00,
2013-04-18 04:50:00,35.2,30.3,30.32,NNE,28,0.0,0.0,82,0.00,,,0.00,Wunderground v.1.15,2013-04-18 08:50:00,
2013-04-18 04:55:00,34.9,30.0,30.32,NNE,28,0.0,0.0,82,0.00,,,0.00,Wunderground v.1.15,2013-04-18 08:55:00,
2013-04-18 05:00:00,34.7,29.8,30.33,NNE,28,0.0,0.0,82,0.00,,,0.00,Wunderground v.1.15,2013-04-18 09:00:00,
2013-04-18 05:05:00,34.4,29.8,30.33,NNE,28,0.0,2.0,83,0.00,,,0.00,Wunderground v.1.15,2013-04-18 09:05:00,
2013-04-18 05:10:00,34.6,30.0,30.33,NNE,28,0.0,0.0,83,0.00,,,0.00,Wunderground v.1.15,2013-04-18 09:10:00,
2013-04-18 05:15:00,34.7,29.8,30.32,NNE,28,0.0,1.0,82,0.00,,,0.00,Wunderground v.1.15,2013-04-18 09:15:00,
2013-04-18 05:20:00,34.7,29.8,30.32,NNE,28,0.0,0.0,82,0.00,,,0.00,Wunderground v.1.15,2013-04-18 09:20:00,
2013-04-18 05:26:00,34.9,30.0,30.32,NNE,28,0.0,2.0,82,0.00,,,0.00,Wunderground v.1.15,2013-04-18 09:26:00,
2013-04-18 05:31:00,35.0,30.1,30.35,NNE,28,0.0,0.0,82,0.00,,,0.00,Wunderground v.1.15,2013-04-18 09:31:00,
2013-04-18 05:36:00,34.9,30.0,30.35,NNE,28,0.0,0.0,82,0.00,,,0.00,Wunderground v.1.15,2013-04-18 09:36:00,
2013-04-18 05:41:00,34.9,30.3,30.34,NNE,28,1.0,2.0,83,0.00,,,0.00,Wunderground v.1.15,2013-04-18 09:41:00,
2013-04-18 05:47:00,35.2,30.3,30.34,NNE,28,0.0,2.0,82,0.00,,,0.00,Wunderground v.1.15,2013-04-18 09:47:00,
2013-04-18 05:52:00,35.0,30.1,30.34,NNE,28,2.0,2.0,82,0.00,,,0.00,Wunderground v.1.15,2013-04-18 09:52:00,
2013-04-18 05:57:00,35.0,30.4,30.33,NNE,28,3.0,3.0,83,0.00,,,0.00,Wunderground v.1.15,2013-04-18 09:57:00,
2013-04-18 06:02:00,35.3,30.7,30.33,NNE,28,0.0,4.0,83,0.00,,,0.00,Wunderground v.1.15,2013-04-18 10:02:00,
2013-04-18 06:07:00,35.3,30.7,30.33,NNE,28,0.0,4.0,83,0.00,,,0.00,Wunderground v.1.15,2013-04-18 10:07:00,
2013-04-18 06:12:00,35.5,30.8,30.34,NNE,28,0.0,3.0,83,0.00,,,0.00,Wunderground v.1.15,2013-04-18 10:12:00,
2013-04-18 06:17:00,35.3,30.4,30.34,NNE,28,0.0,3.0,82,0.00,,,0.00,Wunderground v.1.15,2013-04-18 10:17:00,
2013-04-18 06:22:00,35.3,30.4,30.34,NNE,28,0.0,0.0,82,0.00,,,0.00,Wunderground v.1.15,2013-04-18 10:22:00,
2013-04-18 06:27:00,35.3,30.7,30.33,NNE,28,0.0,1.0,83,0.00,,,0.00,Wunderground v.1.15,2013-04-18 10:27:00,
2013-04-18 06:32:00,35.5,30.5,30.33,NNE,28,0.0,1.0,82,0.00,,,0.00,Wunderground v.1.15,2013-04-18 10:32:00,
2013-04-18 06:37:00,35.6,30.6,30.33,NNE,28,0.0,1.0,82,0.00,,,0.00,Wunderground v.1.15,2013-04-18 10:37:00,
2013-04-18 06:42:00,35.8,30.8,30.33,NNE,28,0.0,0.0,82,0.00,,,0.00,Wunderground v.1.15,2013-04-18 10:42:00,
2013-04-18 06:47:00,36.0,31.0,30.33,NNE,28,0.0,0.0,82,0.00,,,0.00,Wunderground v.1.15,2013-04-18 10:47:00,
2013-04-18 06:52:00,36.2,31.2,30.33,NNE,28,0.0,0.0,82,0.00,,,0.00,Wunderground v.1.15,2013-04-18 10:52:00,
2013-04-18 06:57:00,36.3,31.3,30.33,NNE,28,0.0,1.0,82,0.00,,,0.00,Wunderground v.1.15,2013-04-18 10:57:00,
2013-04-18 07:02:00,36.8,31.5,30.33,NNE,28,0.0,2.0,81,0.00,,,0.00,Wunderground v.1.15,2013-04-18 11:02:00,
2013-04-18 07:07:00,37.3,31.7,30.33,NNE,28,0.0,2.0,80,0.00,,,0.00,Wunderground v.1.15,2013-04-18 11:07:00,
2013-04-18 07:12:00,37.6,31.7,30.33,NNE,28,0.0,4.0,79,0.00,,,0.00,Wunderground v.1.15,2013-04-18 11:12:00,
2013-04-18 07:17:00,38.2,31.6,30.33,NNE,30,2.0,5.0,77,0.00,,,0.00,Wunderground v.1.15,2013-04-18 11:17:00,
2013-04-18 07:22:00,38.5,31.3,30.33,NE,44,3.0,6.0,75,0.00,,,0.00,Wunderground v.1.15,2013-04-18 11:22:00,
2013-04-18 07:27:00,38.5,30.9,30.31,East,86,3.0,8.0,74,0.00,,,0.00,Wunderground v.1.15,2013-04-18 11:27:00,
2013-04-18 07:32:00,38.6,30.7,30.31,East,98,1.0,4.0,73,0.00,,,0.00,Wunderground v.1.15,2013-04-18 11:32:00,
2013-04-18 07:37:00,38.8,31.2,30.31,ESE,109,2.0,5.0,74,0.00,,,0.00,Wunderground v.1.15,2013-04-18 11:37:00,
2013-04-18 07:42:00,38.8,31.2,30.32,ESE,109,0.0,4.0,74,0.00,,,0.00,Wunderground v.1.15,2013-04-18 11:42:00,
2013-04-18 07:47:00,38.6,31.4,30.32,ESE,112,2.0,5.0,75,0.00,,,0.00,Wunderground v.1.15,2013-04-18 11:47:00,
2013-04-18 07:52:00,38.8,32.2,30.32,ESE,112,2.0,3.0,77,0.00,,,0.00,Wunderground v.1.15,2013-04-18 11:52:00,
2013-04-18 07:57:00,38.9,32.3,30.31,ESE,112,0.0,3.0,77,0.00,,,0.00,Wunderground v.1.15,2013-04-18 11:57:00,
2013-04-18 08:02:00,39.3,32.7,30.31,ESE,112,1.0,2.0,77,0.00,,,0.00,Wunderground v.1.15,2013-04-18 12:02:00,
2013-04-18 08:07:00,39.5,32.9,30.31,ESE,112,0.0,2.0,77,0.00,,,0.00,Wunderground v.1.15,2013-04-18 12:07:00,
2013-04-18 08:12:00,39.8,33.5,30.31,ESE,112,1.0,1.0,78,0.00,,,0.00,Wunderground v.1.15,2013-04-18 12:12:00,
2013-04-18 08:17:00,40.1,33.8,30.31,ESE,112,0.0,2.0,78,0.00,,,0.00,Wunderground v.1.15,2013-04-18 12:17:00,
2013-04-18 08:22:00,40.3,33.7,30.31,ESE,112,0.0,4.0,77,0.00,,,0.00,Wunderground v.1.15,2013-04-18 12:22:00,
2013-04-18 08:27:00,40.6,34.0,30.31,ESE,112,0.0,4.0,77,0.00,,,0.00,Wunderground v.1.15,2013-04-18 12:27:00,
2013-04-18 08:32:00,40.6,33.6,30.31,ESE,112,0.0,3.0,76,0.00,,,0.00,Wunderground v.1.15,2013-04-18 12:32:00,
2013-04-18 08:37:00,40.6,33.6,30.31,ESE,112,3.0,4.0,76,0.00,,,0.00,Wunderground v.1.15,2013-04-18 12:37:00,
2013-04-18 08:42:00,40.9,33.9,30.31,ESE,113,3.0,3.0,76,0.00,,,0.00,Wunderground v.1.15,2013-04-18 12:42:00,
2013-04-18 08:47:00,41.1,33.8,30.31,ESE,113,0.0,3.0,75,0.00,,,0.00,Wunderground v.1.15,2013-04-18 12:47:00,
2013-04-18 08:53:00,41.5,34.2,30.31,ESE,113,0.0,1.0,75,0.00,,,0.00,Wunderground v.1.15,2013-04-18 12:53:00,
2013-04-18 08:58:00,41.9,33.9,30.29,ESE,113,2.0,3.0,73,0.00,,,0.00,Wunderground v.1.15,2013-04-18 12:58:00,
2013-04-18 09:03:00,42.3,34.3,30.29,ESE,119,2.0,5.0,73,0.00,,,0.00,Wunderground v.1.15,2013-04-18 13:03:00,
2013-04-18 09:08:00,42.6,33.9,30.29,ESE,120,4.0,5.0,71,0.00,,,0.00,Wunderground v.1.15,2013-04-18 13:08:00,
2013-04-18 09:13:00,42.8,34.0,30.29,SE,125,2.0,5.0,71,0.00,,,0.00,Wunderground v.1.15,2013-04-18 13:13:00,
2013-04-18 09:18:00,43.2,34.1,30.29,SE,133,3.0,6.0,70,0.00,,,0.00,Wunderground v.1.15,2013-04-18 13:18:00,
2013-04-18 09:23:00,43.6,33.7,30.29,SSE,168,4.0,7.0,68,0.00,,,0.00,Wunderground v.1.15,2013-04-18 13:23:00,
2013-04-18 09:28:00,44.2,33.6,30.27,South,181,6.0,7.0,66,0.00,,,0.00,Wunderground v.1.15,2013-04-18 13:28:00,
2013-04-18 09:33:00,44.8,33.7,30.27,South,184,6.0,9.0,65,0.00,,,0.00,Wunderground v.1.15,2013-04-18 13:33:00,
2013-04-18 09:38:00,45.4,33.1,30.27,SSW,195,9.0,11.0,62,0.00,,,0.00,Wunderground v.1.15,2013-04-18 13:38:00,
2013-04-18 09:43:00,45.8,32.7,30.26,SSW,196,5.0,12.0,60,0.00,,,0.00,Wunderground v.1.15,2013-04-18 13:43:00,
2013-04-18 09:48:00,46.4,32.8,30.26,South,185,8.0,12.0,59,0.00,,,0.00,Wunderground v.1.15,2013-04-18 13:48:00,
2013-04-18 09:53:00,47.0,33.4,30.26,South,187,6.0,12.0,59,0.00,,,0.00,Wunderground v.1.15,2013-04-18 13:53:00,
2013-04-18 09:58:00,47.9,33.4,30.25,South,184,9.0,12.0,57,0.00,,,0.00,Wunderground v.1.15,2013-04-18 13:58:00,
2013-04-18 10:04:00,48.9,33.9,30.25,South,180,5.0,9.0,56,0.00,,,0.00,Wunderground v.1.15,2013-04-18 14:04:00,
2013-04-18 10:09:00,49.6,33.2,30.25,SSW,198,3.0,14.0,53,0.00,,,0.00,Wunderground v.1.15,2013-04-18 14:09:00,
2013-04-18 10:14:00,49.5,33.1,30.25,SW,219,5.0,10.0,53,0.00,,,0.00,Wunderground v.1.15,2013-04-18 14:14:00,
2013-04-18 10:19:00,49.5,31.6,30.25,SSW,203,5.0,11.0,50,0.00,,,0.00,Wunderground v.1.15,2013-04-18 14:19:00,
2013-04-18 10:24:00,49.8,32.4,30.25,SSW,205,6.0,10.0,51,0.00,,,0.00,Wunderground v.1.15,2013-04-18 14:24:00,
2013-04-18 10:29:00,50.2,32.3,30.26,SSW,213,6.0,11.0,50,0.00,,,0.00,Wunderground v.1.15,2013-04-18 14:29:00,
2013-04-18 10:34:00,50.7,31.7,30.26,SSW,207,11.0,14.0,48,0.00,,,0.00,Wunderground v.1.15,2013-04-18 14:34:00,
2013-04-18 10:40:00,50.7,32.2,30.26,SSW,210,8.0,8.0,49,0.00,,,0.00,Wunderground v.1.15,2013-04-18 14:40:00,
2013-04-18 10:45:00,51.4,29.6,30.25,SSW,196,11.0,19.0,43,0.00,,,0.00,Wunderground v.1.15,2013-04-18 14:45:00,
2013-04-18 10:50:00,51.6,29.2,30.25,SSW,194,10.0,10.0,42,0.00,,,0.00,Wunderground v.1.15,2013-04-18 14:50:00,
2013-04-18 10:55:00,51.6,29.8,30.25,SSW,198,5.0,18.0,43,0.00,,,0.00,Wunderground v.1.15,2013-04-18 14:55:00,
2013-04-18 11:00:00,51.1,31.0,30.27,SW,231,6.0,11.0,46,0.00,,,0.00,Wunderground v.1.15,2013-04-18 15:00:00,
2013-04-18 11:05:00,50.5,31.0,30.27,SSW,209,6.0,11.0,47,0.00,,,0.00,Wunderground v.1.15,2013-04-18 15:05:00,
2013-04-18 11:10:00,50.1,31.7,30.27,SSW,209,6.0,11.0,49,0.00,,,0.00,Wunderground v.1.15,2013-04-18 15:10:00,
2013-04-18 11:15:00,49.6,33.6,30.26,SSW,192,12.0,14.0,54,0.00,,,0.00,Wunderground v.1.15,2013-04-18 15:15:00,
2013-04-18 11:20:00,48.6,34.9,30.26,SSW,200,10.0,11.0,59,0.00,,,0.00,Wunderground v.1.15,2013-04-18 15:20:00,
2013-04-18 11:25:00,48.2,35.4,30.26,South,190,7.0,14.0,61,0.00,,,0.00,Wunderground v.1.15,2013-04-18 15:25:00,
2013-04-18 11:31:00,48.0,34.8,30.25,SSW,196,12.0,14.0,60,0.00,,,0.00,Wunderground v.1.15,2013-04-18 15:31:00,
2013-04-18 11:37:00,47.7,35.3,30.25,SSW,194,8.0,14.0,62,0.00,,,0.00,Wunderground v.1.15,2013-04-18 15:37:00,
2013-04-18 11:42:00,47.3,35.7,30.23,South,176,10.0,15.0,64,0.00,,,0.00,Wunderground v.1.15,2013-04-18 15:42:00,
2013-04-18 11:47:00,47.3,35.7,30.23,South,182,7.0,15.0,64,0.00,,,0.00,Wunderground v.1.15,2013-04-18 15:47:00,
2013-04-18 11:52:00,47.6,36.4,30.23,SSW,196,11.0,12.0,65,0.00,,,0.00,Wunderground v.1.15,2013-04-18 15:52:00,
2013-04-18 11:57:00,47.7,36.1,30.23,SSW,196,6.0,14.0,64,0.00,,,0.00,Wunderground v.1.15,2013-04-18 15:57:00,
2013-04-18 12:02:00,48.0,35.6,30.23,SSW,192,10.0,13.0,62,0.00,,,0.00,Wunderground v.1.15,2013-04-18 16:02:00,
2013-04-18 12:07:00,48.3,35.9,30.23,SSW,192,6.0,13.0,62,0.00,,,0.00,Wunderground v.1.15,2013-04-18 16:07:00,
2013-04-18 12:12:00,48.6,35.7,30.21,SSW,196,12.0,17.0,61,0.00,,,0.00,Wunderground v.1.15,2013-04-18 16:12:00,
2013-04-18 12:17:00,48.8,36.4,30.21,SSW,194,7.0,17.0,62,0.00,,,0.00,Wunderground v.1.15,2013-04-18 16:17:00,
2013-04-18 12:22:00,48.9,36.9,30.21,SSW,196,12.0,15.0,63,0.00,,,0.00,Wunderground v.1.15,2013-04-18 16:22:00,
2013-04-18 12:27:00,49.2,36.3,30.20,SSW,199,10.0,18.0,61,0.00,,,0.00,Wunderground v.1.15,2013-04-18 16:27:00,
2013-04-18 12:32:00,49.4,36.9,30.20,SSW,201,12.0,14.0,62,0.00,,,0.00,Wunderground v.1.15,2013-04-18 16:32:00,
2013-04-18 12:37:00,49.5,36.6,30.20,SSW,202,13.0,16.0,61,0.00,,,0.00,Wunderground v.1.15,2013-04-18 16:37:00,
2013-04-18 12:42:00,49.6,36.7,30.19,South,189,14.0,19.0,61,0.00,,,0.00,Wunderground v.1.15,2013-04-18 16:42:00,
2013-04-18 12:47:00,48.9,37.3,30.19,SSW,201,7.0,19.0,64,0.00,,,0.00,Wunderground v.1.15,2013-04-18 16:47:00,
2013-04-18 12:52:00,48.8,37.2,30.19,SSW,202,11.0,12.0,64,0.00,,,0.00,Wunderground v.1.15,2013-04-18 16:52:00,
2013-04-18 12:57:00,48.9,37.3,30.17,SSW,197,12.0,20.0,64,0.00,,,0.00,Wunderground v.1.15,2013-04-18 16:57:00,
2013-04-18 13:02:00,49.2,37.9,30.17,SSW,205,8.0,14.0,65,0.00,,,0.00,Wunderground v.1.15,2013-04-18 17:02:00,
2013-04-18 13:07:00,49.9,39.0,30.17,SSW,204,5.0,14.0,66,0.00,,,0.00,Wunderground v.1.15,2013-04-18 17:07:00,
2013-04-18 13:12:00,50.8,39.1,30.17,SSW,200,7.0,11.0,64,0.00,,,0.00,Wunderground v.1.15,2013-04-18 17:12:00,
2013-04-18 13:17:00,52.0,39.8,30.17,SW,221,9.0,13.0,63,0.00,,,0.00,Wunderground v.1.15,2013-04-18 17:17:00,
2013-04-18 13:22:00,52.2,38.7,30.17,SSW,210,9.0,17.0,60,0.00,,,0.00,Wunderground v.1.15,2013-04-18 17:22:00,
2013-04-18 13:27:00,52.6,39.5,30.15,SSW,200,11.0,17.0,61,0.00,,,0.00,Wunderground v.1.15,2013-04-18 17:27:00,
2013-04-18 13:32:00,52.9,39.8,30.15,SSW,211,5.0,17.0,61,0.00,,,0.00,Wunderground v.1.15,2013-04-18 17:32:00,
2013-04-18 13:37:00,53.8,39.8,30.15,SSW,195,5.0,17.0,59,0.00,,,0.00,Wunderground v.1.15,2013-04-18 17:37:00,
2013-04-18 13:42:00,53.9,39.5,30.14,South,190,7.0,16.0,58,0.00,,,0.00,Wunderground v.1.15,2013-04-18 17:42:00,
2013-04-18 13:47:00,55.0,39.1,30.14,SSW,197,17.0,24.0,55,0.00,,,0.00,Wunderground v.1.15,2013-04-18 17:47:00,
2013-04-18 13:52:00,55.9,38.5,30.14,SSW,201,9.0,24.0,52,0.00,,,0.00,Wunderground v.1.15,2013-04-18 17:52:00,
2013-04-18 13:57:00,56.2,37.8,30.12,SSW,196,13.0,24.0,50,0.00,,,0.00,Wunderground v.1.15,2013-04-18 17:57:00,
2013-04-18 14:02:00,56.7,38.3,30.12,SSW,204,15.0,17.0,50,0.00,,,0.00,Wunderground v.1.15,2013-04-18 18:02:00,
2013-04-18 14:07:00,57.5,38.5,30.12,SSW,205,13.0,19.0,49,0.00,,,0.00,Wunderground v.1.15,2013-04-18 18:07:00,
2013-04-18 14:12:00,58.1,38.5,30.11,SSW,197,10.0,19.0,48,0.00,,,0.00,Wunderground v.1.15,2013-04-18 18:12:00,
2013-04-18 14:17:00,58.4,38.8,30.11,SSW,201,9.0,21.0,48,0.00,,,0.00,Wunderground v.1.15,2013-04-18 18:17:00,
2013-04-18 14:22:00,58.0,38.4,30.11,SSW,195,14.0,23.0,48,0.00,,,0.00,Wunderground v.1.15,2013-04-18 18:22:00,
2013-04-18 14:27:00,58.3,38.1,30.10,SSW,207,15.0,23.0,47,0.00,,,0.00,Wunderground v.1.15,2013-04-18 18:27:00,
2013-04-18 14:33:00,58.9,39.8,30.10,South,186,10.0,19.0,49,0.00,,,0.00,Wunderground v.1.15,2013-04-18 18:33:00,
2013-04-18 14:38:00,59.3,39.6,30.10,SSW,192,11.0,20.0,48,0.00,,,0.00,Wunderground v.1.15,2013-04-18 18:38:00,
2013-04-18 14:43:00,59.8,37.2,30.09,South,169,13.0,24.0,43,0.00,,,0.00,Wunderground v.1.15,2013-04-18 18:43:00,
2013-04-18 14:48:00,59.8,37.2,30.09,SSW,198,17.0,24.0,43,0.00,,,0.00,Wunderground v.1.15,2013-04-18 18:48:00,
2013-04-18 14:53:00,59.8,37.2,30.09,SSW,209,16.0,23.0,43,0.00,,,0.00,Wunderground v.1.15,2013-04-18 18:53:00,
2013-04-18 14:58:00,59.9,37.3,30.07,SSW,196,18.0,25.0,43,0.00,,,0.00,Wunderground v.1.15,2013-04-18 18:58:00,
2013-04-18 15:03:00,60.2,36.4,30.07,SSW,209,18.0,26.0,41,0.00,,,0.00,Wunderground v.1.15,2013-04-18 19:03:00,
2013-04-18 15:08:00,60.9,37.0,30.07,SSW,193,19.0,26.0,41,0.00,,,0.00,Wunderground v.1.15,2013-04-18 19:08:00,
2013-04-18 15:13:00,61.3,36.8,30.05,South,186,18.0,29.0,40,0.00,,,0.00,Wunderground v.1.15,2013-04-18 19:13:00,
2013-04-18 15:18:00,62.0,36.7,30.05,SSW,193,16.0,31.0,39,0.00,,,0.00,Wunderground v.1.15,2013-04-18 19:18:00,
2013-04-18 15:23:00,62.4,37.1,30.05,South,179,23.0,27.0,39,0.00,,,0.00,Wunderground v.1.15,2013-04-18 19:23:00,
2013-04-18 15:28:00,62.3,36.4,30.04,South,171,18.0,27.0,38,0.00,,,0.00,Wunderground v.1.15,2013-04-18 19:28:00,
2013-04-18 15:33:00,62.0,36.1,30.04,SSW,202,25.0,31.0,38,0.00,,,0.00,Wunderground v.1.15,2013-04-18 19:33:00,
2013-04-18 15:37:00,62.1,36.8,30.04,SSW,201,11.0,31.0,39,0.00,,,0.00,Wunderground v.1.15,2013-04-18 19:37:00,
2013-04-18 15:42:00,62.1,36.2,30.03,SSW,195,18.0,23.0,38,0.00,,,0.00,Wunderground v.1.15,2013-04-18 19:42:00,
2013-04-18 15:47:00,62.3,37.7,30.03,SSW,206,12.0,23.0,40,0.00,,,0.00,Wunderground v.1.15,2013-04-18 19:47:00,
2013-04-18 15:53:00,62.6,37.9,30.03,SSW,198,11.0,15.0,40,0.00,,,0.00,Wunderground v.1.15,2013-04-18 19:53:00,
2013-04-18 15:58:00,63.2,38.5,30.02,SSW,196,13.0,18.0,40,0.00,,,0.00,Wunderground v.1.15,2013-04-18 19:58:00,
2013-04-18 16:03:00,64.0,35.8,30.02,SSW,196,32.0,32.0,35,0.00,,,0.00,Wunderground v.1.15,2013-04-18 20:03:00,
2013-04-18 16:08:00,63.9,38.4,30.02,South,180,23.0,33.0,39,0.00,,,0.01,Wunderground v.1.15,2013-04-18 20:08:00,
2013-04-18 16:14:00,63.7,35.5,30.02,SSW,199,23.0,33.0,35,0.00,,,0.01,Wunderground v.1.15,2013-04-18 20:14:00,
2013-04-18 16:19:00,63.7,36.2,30.02,SSE,157,15.0,33.0,36,0.00,,,0.01,Wunderground v.1.15,2013-04-18 20:19:00,
2013-04-18 16:24:00,64.0,37.2,30.02,SSW,200,16.0,24.0,37,0.00,,,0.01,Wunderground v.1.15,2013-04-18 20:24:00,
2013-04-18 16:29:00,64.2,36.7,30.01,SSW,194,20.0,32.0,36,0.00,,,0.01,Wunderground v.1.15,2013-04-18 20:29:00,
2013-04-18 16:34:00,64.0,35.8,30.01,SSW,200,17.0,33.0,35,0.00,,,0.01,Wunderground v.1.15,2013-04-18 20:34:00,
2013-04-18 16:39:00,64.2,36.7,30.01,SSW,200,19.0,33.0,36,0.00,,,0.01,Wunderground v.1.15,2013-04-18 20:39:00,
2013-04-18 16:44:00,64.2,36.7,30.01,South,182,21.0,27.0,36,0.00,,,0.01,Wunderground v.1.15,2013-04-18 20:44:00,
2013-04-18 16:49:00,64.2,36.7,30.01,SSW,193,20.0,33.0,36,0.00,,,0.01,Wunderground v.1.15,2013-04-18 20:49:00,
2013-04-18 16:54:00,64.2,36.0,30.01,South,173,24.0,33.0,35,0.00,,,0.01,Wunderground v.1.15,2013-04-18 20:54:00,
2013-04-18 16:59:00,64.3,37.5,30.00,SSW,200,16.0,33.0,37,0.00,,,0.01,Wunderground v.1.15,2013-04-18 20:59:00,
2013-04-18 17:05:00,64.3,37.5,30.00,South,189,20.0,30.0,37,0.00,,,0.01,Wunderground v.1.15,2013-04-18 21:05:00,
2013-04-18 17:10:00,64.3,36.8,30.00,South,180,28.0,33.0,36,0.00,,,0.01,Wunderground v.1.15,2013-04-18 21:10:00,
2013-04-18 17:15:00,64.3,36.0,29.99,South,176,14.0,35.0,35,0.00,,,0.01,Wunderground v.1.15,2013-04-18 21:15:00,
2013-04-18 17:20:00,64.7,35.7,29.99,South,180,24.0,34.0,34,0.00,,,0.01,Wunderground v.1.15,2013-04-18 21:20:00,
2013-04-18 17:25:00,64.7,36.4,29.99,SW,215,23.0,35.0,35,0.00,,,0.01,Wunderground v.1.15,2013-04-18 21:25:00,
2013-04-18 17:30:00,64.5,35.5,29.99,South,169,14.0,30.0,34,0.00,,,0.01,Wunderground v.1.15,2013-04-18 21:30:00,
2013-04-18 17:35:00,64.2,36.0,29.99,SSE,166,16.0,30.0,35,0.00,,,0.01,Wunderground v.1.15,2013-04-18 21:35:00,
2013-04-18 17:40:00,64.2,35.2,29.99,South,169,21.0,30.0,34,0.00,,,0.01,Wunderground v.1.15,2013-04-18 21:40:00,
2013-04-18 17:45:00,63.9,35.7,29.98,South,191,31.0,31.0,35,0.00,,,0.01,Wunderground v.1.15,2013-04-18 21:45:00,
2013-04-18 17:50:00,63.9,36.4,29.98,SSW,196,25.0,28.0,36,0.00,,,0.01,Wunderground v.1.15,2013-04-18 21:50:00,
2013-04-18 17:55:00,63.9,35.0,29.98,South,169,21.0,35.0,34,0.00,,,0.01,Wunderground v.1.15,2013-04-18 21:55:00,
2013-04-18 18:00:00,63.9,35.7,29.97,SSW,193,15.0,22.0,35,0.00,,,0.01,Wunderground v.1.15,2013-04-18 22:00:00,
2013-04-18 18:06:00,63.9,35.7,29.97,South,188,16.0,33.0,35,0.00,,,0.01,Wunderground v.1.15,2013-04-18 22:06:00,
2013-04-18 18:11:00,63.7,35.5,29.97,South,190,29.0,29.0,35,0.00,,,0.01,Wunderground v.1.15,2013-04-18 22:11:00,
2013-04-18 18:16:00,63.7,35.5,29.97,South,173,14.0,32.0,35,0.00,,,0.01,Wunderground v.1.15,2013-04-18 22:16:00,
2013-04-18 18:21:00,63.5,36.0,29.97,South,186,17.0,24.0,36,0.00,,,0.01,Wunderground v.1.15,2013-04-18 22:21:00,
2013-04-18 18:26:00,63.4,36.0,29.97,SSW,201,15.0,28.0,36,0.00,,,0.01,Wunderground v.1.15,2013-04-18 22:26:00,
2013-04-18 18:31:00,63.2,36.5,29.97,South,182,19.0,22.0,37,0.00,,,0.01,Wunderground v.1.15,2013-04-18 22:31:00,
2013-04-18 18:36:00,63.1,36.4,29.97,South,169,23.0,29.0,37,0.00,,,0.01,Wunderground v.1.15,2013-04-18 22:36:00,
2013-04-18 18:41:00,62.9,35.5,29.97,SSW,197,13.0,22.0,36,0.00,,,0.01,Wunderground v.1.15,2013-04-18 22:41:00,
2013-04-18 18:46:00,62.9,36.2,29.96,SSW,196,26.0,33.0,37,0.00,,,0.01,Wunderground v.1.15,2013-04-18 22:46:00,
2013-04-18 18:51:00,62.7,36.0,29.96,SSW,206,18.0,22.0,37,0.00,,,0.01,Wunderground v.1.15,2013-04-18 22:51:00,
2013-04-18 18:56:00,62.6,37.3,29.96,SSW,198,20.0,32.0,39,0.00,,,0.01,Wunderground v.1.15,2013-04-18 22:56:00,
2013-04-18 19:01:00,62.4,37.1,29.96,SSW,195,20.0,35.0,39,0.00,,,0.01,Wunderground v.1.15,2013-04-18 23:01:00,
2013-04-18 19:06:00,62.3,37.0,29.96,SSW,213,18.0,35.0,39,0.00,,,0.01,Wunderground v.1.15,2013-04-18 23:06:00,
2013-04-18 19:11:00,62.3,36.4,29.96,SSW,197,22.0,37.0,38,0.00,,,0.01,Wunderground v.1.15,2013-04-18 23:11:00,
2013-04-18 19:16:00,62.1,36.8,29.95,SE,143,26.0,37.0,39,0.00,,,0.01,Wunderground v.1.15,2013-04-18 23:16:00,
2013-04-18 19:21:00,62.0,36.7,29.95,SSW,195,21.0,32.0,39,0.00,,,0.01,Wunderground v.1.15,2013-04-18 23:21:00,
2013-04-18 19:26:00,61.8,36.6,29.95,SSW,198,22.0,35.0,39,0.00,,,0.01,Wunderground v.1.15,2013-04-18 23:26:00,
2013-04-18 19:31:00,61.6,36.4,29.94,SSW,192,32.0,32.0,39,0.00,,,0.01,Wunderground v.1.15,2013-04-18 23:31:00,
2013-04-18 19:36:00,61.5,36.9,29.94,South,184,22.0,40.0,40,0.00,,,0.01,Wunderground v.1.15,2013-04-18 23:36:00,
2013-04-18 19:41:00,61.3,36.8,29.94,South,190,18.0,27.0,40,0.00,,,0.01,Wunderground v.1.15,2013-04-18 23:41:00,
2013-04-18 19:46:00,61.0,37.1,29.94,SSW,192,18.0,38.0,41,0.00,,,0.01,Wunderground v.1.15,2013-04-18 23:46:00,
2013-04-18 19:51:00,60.9,37.6,29.94,South,189,26.0,35.0,42,0.00,,,0.01,Wunderground v.1.15,2013-04-18 23:51:00,
2013-04-18 19:56:00,60.9,37.6,29.94,SSW,203,19.0,35.0,42,0.00,,,0.01,Wunderground v.1.15,2013-04-18 23:56:00,
2013-04-18 20:01:00,60.7,38.1,29.95,South,182,24.0,26.0,43,0.00,,,0.01,Wunderground v.1.15,2013-04-19 00:01:00,
2013-04-18 20:06:00,60.9,37.6,29.95,SSW,198,17.0,29.0,42,0.00,,,0.01,Wunderground v.1.15,2013-04-19 00:06:00,
2013-04-18 20:11:00,60.7,38.1,29.96,SW,228,20.0,27.0,43,0.00,,,0.01,Wunderground v.1.15,2013-04-19 00:11:00,
2013-04-18 20:16:00,60.4,38.4,29.96,SSW,198,13.0,27.0,44,0.00,,,0.01,Wunderground v.1.15,2013-04-19 00:16:00,
2013-04-18 20:22:00,60.2,38.2,29.96,SSW,194,14.0,21.0,44,0.00,,,0.01,Wunderground v.1.15,2013-04-19 00:22:00,
2013-04-18 20:27:00,60.2,38.2,29.96,South,184,15.0,30.0,44,0.00,,,0.01,Wunderground v.1.15,2013-04-19 00:27:00,
2013-04-18 20:32:00,59.9,37.9,29.96,SSW,197,17.0,26.0,44,0.00,,,0.01,Wunderground v.1.15,2013-04-19 00:32:00,
2013-04-18 20:36:00,59.8,38.4,29.96,South,190,18.0,26.0,45,0.00,,,0.01,Wunderground v.1.15,2013-04-19 00:36:00,
2013-04-18 20:42:00,59.6,38.2,29.96,SSW,201,12.0,32.0,45,0.00,,,0.01,Wunderground v.1.15,2013-04-19 00:42:00,
2013-04-18 20:47:00,59.5,38.1,29.96,SSW,211,16.0,32.0,45,0.00,,,0.01,Wunderground v.1.15,2013-04-19 00:47:00,
2013-04-18 20:52:00,59.5,38.1,29.96,SSW,194,17.0,31.0,45,0.00,,,0.01,Wunderground v.1.15,2013-04-19 00:52:00,
2013-04-18 20:57:00,59.2,37.9,29.96,South,179,18.0,31.0,45,0.00,,,0.01,Wunderground v.1.15,2013-04-19 00:57:00,
2013-04-18 21:03:00,59.2,37.9,29.96,SSE,167,13.0,29.0,45,0.00,,,0.01,Wunderground v.1.15,2013-04-19 01:03:00,
2013-04-18 21:08:00,59.0,38.2,29.96,SSW,198,16.0,35.0,46,0.00,,,0.01,Wunderground v.1.15,2013-04-19 01:08:00,
2013-04-18 21:13:00,58.9,38.1,29.96,SSW,196,31.0,34.0,46,0.00,,,0.01,Wunderground v.1.15,2013-04-19 01:13:00,
2013-04-18 21:18:00,59.0,38.2,29.96,SSW,194,22.0,34.0,46,0.00,,,0.01,Wunderground v.1.15,2013-04-19 01:18:00,
2013-04-18 21:23:00,58.6,39.0,29.96,South,176,21.0,26.0,48,0.00,,,0.01,Wunderground v.1.15,2013-04-19 01:23:00,
2013-04-18 21:28:00,58.6,38.4,29.95,SSW,195,24.0,30.0,47,0.00,,,0.01,Wunderground v.1.15,2013-04-19 01:28:00,
2013-04-18 21:33:00,58.4,38.2,29.95,South,186,15.0,28.0,47,0.00,,,0.01,Wunderground v.1.15,2013-04-19 01:33:00,
2013-04-18 21:38:00,58.3,38.7,29.95,South,179,21.0,28.0,48,0.00,,,0.01,Wunderground v.1.15,2013-04-19 01:38:00,
2013-04-18 21:43:00,58.0,38.4,29.96,South,191,18.0,28.0,48,0.00,,,0.01,Wunderground v.1.15,2013-04-19 01:43:00,
2013-04-18 21:48:00,58.0,38.4,29.96,SSW,207,23.0,28.0,48,0.00,,,0.01,Wunderground v.1.15,2013-04-19 01:48:00,
2013-04-18 21:53:00,58.1,38.5,29.96,South,189,13.0,33.0,48,0.00,,,0.01,Wunderground v.1.15,2013-04-19 01:53:00,
2013-04-18 21:58:00,58.0,38.4,29.96,South,183,24.0,33.0,48,0.00,,,0.01,Wunderground v.1.15,2013-04-19 01:58:00,
2013-04-18 22:03:00,57.8,38.2,29.96,SSW,202,21.0,24.0,48,0.00,,,0.01,Wunderground v.1.15,2013-04-19 02:03:00,
2013-04-18 22:08:00,57.6,38.0,29.96,South,188,29.0,29.0,48,0.00,,,0.01,Wunderground v.1.15,2013-04-19 02:08:00,
2013-04-18 22:13:00,57.6,38.6,29.95,South,190,24.0,29.0,49,0.00,,,0.01,Wunderground v.1.15,2013-04-19 02:13:00,
2013-04-18 22:18:00,57.5,38.5,29.95,SSW,196,13.0,33.0,49,0.00,,,0.01,Wunderground v.1.15,2013-04-19 02:18:00,
2013-04-18 22:23:00,57.3,38.3,29.95,South,184,22.0,26.0,49,0.00,,,0.01,Wunderground v.1.15,2013-04-19 02:23:00,
2013-04-18 22:28:00,57.2,38.7,29.96,SSW,203,16.0,31.0,50,0.00,,,0.01,Wunderground v.1.15,2013-04-19 02:28:00,
2013-04-18 22:33:00,57.2,38.7,29.96,South,186,21.0,30.0,50,0.00,,,0.01,Wunderground v.1.15,2013-04-19 02:33:00,
2013-04-18 22:38:00,57.0,39.0,29.96,South,184,20.0,30.0,51,0.00,,,0.01,Wunderground v.1.15,2013-04-19 02:38:00,
2013-04-18 22:44:00,57.0,39.0,29.94,SSW,195,16.0,30.0,51,0.00,,,0.01,Wunderground v.1.15,2013-04-19 02:44:00,
2013-04-18 22:49:00,56.9,38.9,29.94,South,181,25.0,32.0,51,0.00,,,0.01,Wunderground v.1.15,2013-04-19 02:49:00,
2013-04-18 22:54:00,56.9,39.4,29.94,SSW,197,33.0,35.0,52,0.00,,,0.01,Wunderground v.1.15,2013-04-19 02:54:00,
2013-04-18 22:59:00,56.9,39.9,29.94,SSW,200,22.0,35.0,53,0.00,,,0.01,Wunderground v.1.15,2013-04-19 02:59:00,
2013-04-18 23:04:00,56.6,40.1,29.94,SSW,201,20.0,29.0,54,0.00,,,0.01,Wunderground v.1.15,2013-04-19 03:04:00,
2013-04-18 23:09:00,56.5,40.5,29.94,South,173,12.0,29.0,55,0.00,,,0.01,Wunderground v.1.15,2013-04-19 03:09:00,
2013-04-18 23:15:00,56.5,41.0,29.93,SSW,196,15.0,32.0,56,0.00,,,0.01,Wunderground v.1.15,2013-04-19 03:15:00,
2013-04-18 23:20:00,56.3,40.8,29.93,South,174,21.0,29.0,56,0.00,,,0.01,Wunderground v.1.15,2013-04-19 03:20:00,
2013-04-18 23:25:00,56.3,41.3,29.93,SSW,196,28.0,29.0,57,0.00,,,0.01,Wunderground v.1.15,2013-04-19 03:25:00,
2013-04-18 23:30:00,56.5,41.9,29.93,SSW,197,28.0,28.0,58,0.00,,,0.01,Wunderground v.1.15,2013-04-19 03:30:00,
2013-04-18 23:35:00,56.3,41.7,29.93,SSW,198,12.0,33.0,58,0.00,,,0.01,Wunderground v.1.15,2013-04-19 03:35:00,
2013-04-18 23:40:00,56.3,42.1,29.93,South,188,16.0,21.0,59,0.00,,,0.01,Wunderground v.1.15,2013-04-19 03:40:00,
2013-04-18 23:45:00,56.3,42.1,29.92,South,188,18.0,28.0,59,0.00,,,0.01,Wunderground v.1.15,2013-04-19 03:45:00,
2013-04-18 23:50:00,56.5,42.3,29.92,South,190,20.0,24.0,59,0.00,,,0.01,Wunderground v.1.15,2013-04-19 03:50:00,
2013-04-18 23:55:00,56.3,42.1,29.92,South,188,18.0,29.0,59,0.00,,,0.01,Wunderground v.1.15,2013-04-19 03:55:00,